W9JOL Weather Reports


time (UTC)temp
C
wind
direction
speed
KPH
gust
KPH
rain 1hr
cm
rain 24hr
cm
rain mn
cm
humidity
%
barometer
mb
20260505201136 14 135 3.2 8.0 0.00 0.03 0.00 40 1007.3
20260505200636 14 224 3.2 9.7 0.00 0.03 0.00 39 1007.1
20260505200137 13 169 3.2 9.7 0.00 0.03 0.00 41 1007.3
20260505195634 13 96 3.2 9.7 0.00 0.03 0.00 41 1007.3
20260505195135 13 168 3.2 9.7 0.00 0.03 0.00 40 1007.4
20260505194634 13 0 3.2 9.7 0.00 0.03 0.00 42 1007.4
20260505194132 13 84 3.2 9.7 0.00 0.03 0.00 44 1007.5
20260505193631 13 134 3.2 8.0 0.00 0.03 0.00 43 1007.4
20260505193130 13 116 3.2 8.0 0.00 0.03 0.00 43 1007.5
20260505192632 13 152 3.2 9.7 0.00 0.03 0.00 42 1007.6
20260505192131 13 120 4.8 9.7 0.00 0.03 0.00 42 1007.5
20260505191632 13 160 4.8 9.7 0.00 0.03 0.00 44 1007.7
20260505191132 14 135 3.2 9.7 0.00 0.03 0.00 42 1007.6
20260505190631 13 266 3.2 8.0 0.00 0.03 0.00 43 1007.7
20260505190130 13 219 3.2 9.7 0.00 0.03 0.00 46 1007.7
20260505185629 13 295 3.2 9.7 0.00 0.03 0.00 45 1007.6
20260505185127 13 172 3.2 6.4 0.00 0.03 0.00 44 1007.6
20260505184623 13 152 3.2 9.7 0.00 0.03 0.00 43 1007.5
20260505184124 13 142 3.2 9.7 0.00 0.03 0.00 45 1007.6
20260505183624 13 83 3.2 9.7 0.00 0.03 0.00 45 1007.4
20260505183124 13 22 3.2 9.7 0.00 0.03 0.00 43 1007.4
20260505182624 13 45 3.2 12.9 0.00 0.03 0.00 43 1007.4
20260505182124 13 0 3.2 12.9 0.00 0.03 0.00 44 1007.3
20260505181624 13 206 3.2 9.7 0.00 0.03 0.00 41 1007.3
20260505181124 13 182 3.2 8.0 0.00 0.03 0.00 43 1007.2
20260505180624 13 312 3.2 9.7 0.00 0.03 0.00 41 1007.2
20260505180126 13 123 3.2 9.7 0.00 0.03 0.00 42 1007.1
20260505175625 13 164 3.2 9.7 0.00 0.03 0.00 39 1007.0
20260505175354 13 97 3.2 11.3 0.00 0.03 0.00 39 1007.0
20260505174625 13 342 3.2 11.3 0.00 0.03 0.00 46 1007.0
20260505173624 13 17 3.2 8.0 0.00 0.03 0.00 39 1007.1
20260505172621 13 146 3.2 11.3 0.00 0.03 0.00 42 1007.2
20260505172352 13 208 3.2 11.3 0.00 0.03 0.00 41 1007.2
20260505171852 13 247 3.2 9.7 0.00 0.03 0.00 43 1007.1
20260505171121 13 274 3.2 8.0 0.00 0.03 0.00 39 1007.1
20260505170621 13 0 3.2 8.0 0.00 0.03 0.00 44 1007.1
20260505170118 13 150 3.2 8.0 0.00 0.03 0.00 44 1007.0
20260505165616 13 168 4.8 9.7 0.00 0.03 0.00 46 1007.0
20260505165113 13 135 4.8 9.7 0.00 0.03 0.00 41 1006.8
20260505164613 13 141 3.2 9.7 0.00 0.03 0.00 43 1006.9
20260505164113 13 158 3.2 9.7 0.00 0.03 0.00 44 1006.8
20260505163614 13 131 3.2 9.7 0.00 0.03 0.00 43 1006.8
20260505163115 13 145 3.2 9.7 0.00 0.03 0.00 45 1006.9
20260505162614 13 27 3.2 11.3 0.00 0.03 0.00 41 1006.9
20260505162349 13 178 3.2 11.3 0.00 0.03 0.00 40 1007.1
20260505161615 13 116 3.2 12.9 0.00 0.03 0.00 42 1007.0
20260505161114 13 147 3.2 12.9 0.00 0.03 0.00 47 1007.0
20260505160611 13 258 3.2 11.3 0.00 0.03 0.00 43 1007.0
20260505160109 13 135 4.8 14.5 0.00 0.03 0.00 45 1007.0
20260505153347 12 154 4.8 12.9 0.00 0.03 0.00 46 1006.9
20260505152609 12 131 4.8 12.9 0.00 0.03 0.00 46 1006.9
20260505152109 12 340 3.2 9.7 0.00 0.03 0.00 44 1006.9
20260505151609 12 308 4.8 9.7 0.00 0.03 0.00 47 1007.0
20260505151110 12 258 4.8 9.7 0.00 0.03 0.00 47 1006.8
20260505150609 12 182 3.2 9.7 0.00 0.03 0.00 48 1006.9
20260505150109 12 191 3.2 8.0 0.00 0.03 0.00 48 1006.9
20260505140340 12 141 3.2 9.7 0.00 0.03 0.00 48 1007.3
20260505124955 9 124 1.6 8.0 0.00 0.03 0.00 53 1007.1
20260505123955 8 27 1.6 6.4 0.00 0.03 0.00 54 1006.9
20260505123453 8 152 3.2 6.4 0.00 0.03 0.00 56 1007.2
20260505122455 8 151 3.2 6.4 0.00 0.03 0.00 59 1006.9
20260505121955 7 155 1.6 6.4 0.00 0.03 0.00 59 1006.9
20260505121455 7 167 0.0 4.8 0.00 0.03 0.00 61 1006.8
20260505120955 7 0 0.0 4.8 0.00 0.03 0.00 64 1007.0
20260505120455 7 0 1.6 8.0 0.00 0.03 0.00 64 1007.5
20260505115955 6 0 3.2 8.0 0.00 0.03 0.00 66 1007.5
20260505115453 6 192 1.6 6.4 0.00 0.03 0.00 68 1007.6
20260505114953 6 175 0.0 3.2 0.00 0.03 0.00 68 1006.7
20260505114452 6 0 0.0 3.2 0.00 0.03 0.00 67 1006.3
20260505113952 6 0 0.0 3.2 0.00 0.03 0.00 66 1006.1
20260505113450 6 0 0.0 3.2 0.00 0.03 0.00 62 1005.9
20260505112951 6 0 0.0 3.2 0.00 0.03 0.00 64 1005.7
20260505112451 6 0 0.0 3.2 0.00 0.03 0.00 60 1005.5
20260505111951 6 0 0.0 1.6 0.00 0.03 0.00 61 1005.5
20260505111451 6 0 0.0 1.6 0.00 0.03 0.00 60 1005.8
20260505110951 7 125 0.0 3.2 0.00 0.03 0.00 59 1005.9
20260505110451 7 0 0.0 3.2 0.00 0.03 0.00 56 1005.9
20260505101949 7 32 1.6 8.0 0.00 0.03 0.00 55 1005.4
20260505101445 7 122 1.6 9.7 0.00 0.03 0.00 54 1005.2
20260505100942 7 344 1.6 9.7 0.00 0.03 0.00 53 1005.2
20260505100439 7 111 1.6 4.8 0.00 0.03 0.00 55 1005.4
20260505095939 8 0 1.6 6.4 0.00 0.03 0.00 53 1005.3
20260505095440 8 344 1.6 6.4 0.00 0.03 0.00 52 1005.0
20260505094930 7 0 1.6 6.4 0.00 0.03 0.00 53 1004.9
20260505094428 7 325 1.6 8.0 0.00 0.03 0.00 56 1004.9
20260505093926 7 143 1.6 8.0 0.00 0.03 0.00 60 1005.1
20260505093425 7 0 1.6 8.0 0.00 0.03 0.00 57 1005.2
20260505092926 7 333 1.6 8.0 0.00 0.03 0.00 58 1005.2
20260505092426 7 171 0.0 3.2 0.00 0.03 0.00 60 1005.3
20260505091926 7 0 1.6 4.8 0.00 0.03 0.00 58 1005.4
20260505091426 7 57 0.0 4.8 0.00 0.03 0.00 59 1005.4
20260505090926 7 0 1.6 4.8 0.00 0.03 0.00 56 1005.2
20260505090657 8 215 1.6 4.8 0.00 0.03 0.00 58 1005.0
20260505090159 8 0 1.6 6.4 0.00 0.03 0.00 57 1004.9
20260505085654 8 344 1.6 6.4 0.00 0.03 0.00 55 1004.5
20260505085206 8 354 1.6 6.4 0.00 0.03 0.00 54 1004.4
20260505084658 8 13 3.2 6.4 0.00 0.03 0.00 54 1004.3
20260505083920 8 317 3.2 6.4 0.00 0.03 0.00 53 1004.2
20260505083421 8 162 1.6 6.4 0.00 0.03 0.00 54 1004.1
20260505082921 8 334 1.6 6.4 0.00 0.03 0.00 54 1004.0
20260505082651 8 0 3.2 8.0 0.00 0.03 0.00 53 1003.9
20260505082157 8 324 3.2 9.7 0.00 0.03 0.00 53 1003.9
20260505081421 8 358 3.2 9.7 0.00 0.03 0.00 53 1003.8
20260505080920 9 78 3.2 12.9 0.00 0.03 0.00 56 1003.7
20260505080418 9 325 3.2 12.9 0.00 0.03 0.00 54 1003.5
20260505080146 9 331 3.2 9.7 0.00 0.03 0.00 53 1003.4
20260505075415 9 70 3.2 9.7 0.00 0.03 0.00 53 1003.2
20260505074911 10 6 3.2 9.7 0.00 0.03 0.00 54 1003.1
20260505074412 10 16 3.2 14.5 0.00 0.03 0.00 54 1002.9
20260505073912 10 14 3.2 14.5 0.00 0.03 0.00 54 1002.8
20260505073411 10 66 1.6 8.0 0.00 0.03 0.00 56 1002.9
20260505072912 10 131 1.6 8.0 0.00 0.03 0.00 55 1003.0
20260505072412 10 27 3.2 9.7 0.00 0.03 0.00 58 1002.8
20260505071913 10 275 3.2 9.7 0.00 0.03 0.00 58 1002.7
20260505071412 10 332 1.6 9.7 0.00 0.03 0.00 60 1002.7
20260505070912 10 326 1.6 4.8 0.00 0.03 0.00 58 1002.6
20260505070412 10 136 1.6 4.8 0.00 0.03 0.00 57 1002.6
20260505065913 10 0 1.6 4.8 0.00 0.03 0.00 56 1002.6
20260505065410 10 137 1.6 6.4 0.00 0.03 0.00 57 1002.8
20260505064910 11 0 1.6 6.4 0.00 0.03 0.00 56 1002.6
20260505064640 11 223 1.6 6.4 0.00 0.03 0.00 55 1002.5
20260505063907 11 0 1.6 6.4 0.00 0.03 0.00 56 1002.3
20260505062905 11 0 1.6 9.7 0.00 0.03 0.00 53 1002.0
20260505061904 12 33 3.2 9.7 0.00 0.03 0.00 53 1002.0
20260505061405 12 31 3.2 9.7 0.00 0.03 0.00 53 1001.9
20260505060904 12 28 3.2 9.7 0.00 0.03 0.00 53 1001.9
20260505060404 12 136 3.2 8.0 0.00 0.03 0.00 53 1001.9
20260505055905 12 80 3.2 9.7 0.00 0.03 0.00 51 1001.9
20260505055403 12 68 3.2 9.7 0.00 0.03 0.00 49 1002.0
20260505054902 13 54 4.8 14.5 0.00 0.03 0.00 49 1001.9
20260505054402 13 14 3.2 14.5 0.00 0.03 0.00 49 1001.7
20260505053902 13 0 3.2 9.7 0.00 0.03 0.00 49 1001.7
20260505053402 13 296 3.2 9.7 0.00 0.03 0.00 49 1001.6
20260505052903 13 252 3.2 9.7 0.00 0.03 0.00 48 1001.4
20260505052402 13 133 3.2 11.3 0.00 0.03 0.00 48 1001.4
20260505051902 13 130 1.6 11.3 0.00 0.03 0.00 49 1001.2
20260505051402 13 30 3.2 9.7 0.00 0.03 0.00 49 1001.2
20260505050902 13 123 3.2 9.7 0.00 0.03 0.00 48 1001.2
20260505050359 13 117 3.2 12.9 0.00 0.03 0.00 46 1001.1
20260505041356 15 139 3.2 11.3 0.00 0.03 0.03 44 1000.1
20260505040855 15 130 1.6 11.3 0.00 0.03 0.03 43 1000.1
20260505040355 15 24 1.6 8.0 0.00 0.03 0.03 44 1000.0
20260505040126 15 56 1.6 8.0 0.00 0.03 0.03 43 999.9
20260505035626 15 0 1.6 9.7 0.00 0.03 0.03 42 999.9
20260505035129 15 27 3.2 9.7 0.00 0.03 0.03 43 999.8
20260505034624 15 285 3.2 9.7 0.00 0.03 0.03 44 999.9
20260505033848 15 0 1.6 9.7 0.00 0.03 0.03 44 1000.0
20260505033349 15 0 1.6 8.0 0.00 0.03 0.03 49 1000.1
20260505032849 15 151 1.6 6.4 0.00 0.03 0.03 45 1000.1
20260505032349 15 100 1.6 6.4 0.00 0.03 0.03 46 1000.1
20260505031849 15 0 1.6 8.0 0.00 0.03 0.03 48 1000.0
20260505031348 15 146 1.6 8.0 0.00 0.03 0.03 51 999.9
20260505030850 15 103 0.0 4.8 0.00 0.03 0.03 52 999.9
20260505030349 16 81 0.0 3.2 0.00 0.03 0.03 51 999.9
20260505025847 16 35 0.0 4.8 0.00 0.03 0.03 48 999.7
20260505025346 16 23 1.6 4.8 0.00 0.03 0.03 47 999.6
20260505024846 16 89 1.6 6.4 0.00 0.03 0.03 46 999.6
20260505024347 16 0 1.6 8.0 0.00 0.03 0.03 45 999.6
20260505023845 17 176 3.2 8.0 0.00 0.03 0.03 42 999.5
20260505023345 17 276 3.2 11.3 0.00 0.03 0.03 42 999.4
20260505022845 17 26 3.2 11.3 0.00 0.03 0.03 43 999.2
20260505022346 17 124 3.2 12.9 0.00 0.03 0.03 43 999.1
20260505021844 17 0 1.6 12.9 0.00 0.03 0.03 45 999.1
20260505021344 17 75 1.6 8.0 0.00 0.03 0.03 45 999.1
20260505020844 18 287 3.2 12.9 0.00 0.03 0.03 45 998.9
20260505020345 18 334 3.2 12.9 0.00 0.03 0.03 45 998.8
20260505015844 18 0 1.6 8.0 0.00 0.03 0.03 47 998.6
20260505015342 18 174 3.2 8.0 0.00 0.03 0.03 45 998.5
20260505014842 18 147 3.2 9.7 0.00 0.03 0.03 45 998.3
20260505014342 18 299 1.6 9.7 0.00 0.03 0.03 48 998.3
20260505013842 19 124 1.6 8.0 0.00 0.03 0.03 49 998.1
20260505013341 19 0 3.2 11.3 0.00 0.03 0.03 48 997.9
20260505012842 19 319 3.2 11.3 0.00 0.03 0.03 46 997.7
20260505012610 19 126 1.6 9.7 0.00 0.03 0.03 47 997.4
20260505011840 20 82 1.6 9.7 0.00 0.03 0.03 47 997.2
20260505011340 20 121 1.6 8.0 0.00 0.03 0.03 48 996.9
20260505010841 20 127 3.2 12.9 0.00 0.03 0.03 47 996.7
20260505010608 20 64 1.6 12.9 0.00 0.03 0.03 48 996.6
20260505005842 21 138 1.6 8.0 0.00 0.03 0.03 47 996.6
20260505005342 21 121 1.6 9.7 0.00 0.03 0.03 47 996.5
20260505004840 21 0 3.2 9.7 0.00 0.03 0.03 45 996.5
20260505004612 21 339 3.2 9.7 0.00 0.03 0.03 45 996.2
20260505003840 21 44 3.2 11.3 0.00 0.03 0.03 44 996.1
20260505003340 21 204 1.6 11.3 0.00 0.03 0.03 47 995.8
20260505002839 21 0 0.0 3.2 0.00 0.03 0.03 49 995.6
20260505002340 21 50 0.0 3.2 0.00 0.03 0.03 48 995.4
20260505001839 21 335 0.0 3.2 0.00 0.03 0.03 47 995.3
20260505001339 22 0 0.0 3.2 0.00 0.03 0.03 45 995.3
20260505000841 22 0 0.0 4.8 0.00 0.03 0.03 45 995.3
20260505000343 22 0 1.6 6.4 0.00 0.03 0.03 43 995.4
20260504235837 22 235 1.6 6.4 0.00 0.03 0.03 43 995.4
20260504235337 22 0 0.0 4.8 0.00 0.03 0.03 42 995.4
20260504234837 22 0 0.0 4.8 0.00 0.03 0.03 44 995.4
20260504234338 22 0 1.6 4.8 0.00 0.03 0.03 42 995.4
20260504233837 22 253 1.6 8.0 0.00 0.03 0.03 41 995.5
20260504233336 23 188 3.2 8.0 0.00 0.03 0.03 41 995.5
20260504232837 23 175 3.2 8.0 0.00 0.03 0.03 41 995.6
20260504231836 23 324 3.2 11.3 0.00 0.03 0.03 42 995.9
20260504231336 23 181 4.8 12.9 0.00 0.03 0.03 40 995.9
20260504231107 23 300 4.8 12.9 0.00 0.03 0.03 40 996.1
20260504230333 23 155 4.8 12.9 0.00 0.03 0.03 42 996.2
20260504225602 24 305 3.2 11.3 0.00 0.00 0.00 38 996.0
20260504224833 24 199 3.2 11.3 0.00 0.00 0.00 38 995.9
20260504224333 25 182 3.2 11.3 0.00 0.00 0.00 37 995.9
20260504223833 25 192 3.2 9.7 0.00 0.00 0.00 36 995.9
20260504223333 25 181 3.2 9.7 0.00 0.00 0.00 38 995.9
20260504222833 25 196 3.2 12.9 0.00 0.00 0.00 39 995.9
20260504222333 25 187 3.2 12.9 0.00 0.00 0.00 39 995.9
20260504221833 25 249 3.2 12.9 0.00 0.00 0.00 36 995.9
20260504221334 25 192 4.8 14.5 0.00 0.00 0.00 39 995.9
20260504220833 25 182 4.8 14.5 0.00 0.00 0.00 39 996.0
20260504220330 25 212 3.2 9.7 0.00 0.00 0.00 38 996.0
20260504215830 25 251 3.2 14.5 0.00 0.00 0.00 39 996.2
20260504215558 24 154 3.2 14.5 0.00 0.00 0.00 38 996.2
20260504214828 24 186 4.8 12.9 0.00 0.00 0.00 41 996.2
20260504214329 25 236 4.8 12.9 0.00 0.00 0.00 39 996.4
20260504213829 25 193 3.2 9.7 0.00 0.00 0.00 38 996.2
20260504213329 25 153 3.2 11.3 0.00 0.00 0.00 39 996.4
20260504212829 25 10 4.8 14.5 0.00 0.00 0.00 36 996.4
20260504212606 25 302 4.8 14.5 0.00 0.00 0.00 36 996.4
20260504211829 25 157 3.2 11.3 0.00 0.00 0.00 37 996.4
20260504211327 25 168 3.2 11.3 0.00 0.00 0.00 35 996.6
20260504210826 25 200 3.2 12.9 0.00 0.00 0.00 36 996.6
20260504210325 25 73 4.8 12.9 0.00 0.00 0.00 35 996.6
20260504205827 25 180 4.8 16.1 0.00 0.00 0.00 36 996.7
20260504205325 25 215 4.8 16.1 0.00 0.00 0.00 37 996.8
20260504204826 25 298 4.8 14.5 0.00 0.00 0.00 36 996.8
20260504204557 25 348 4.8 16.1 0.00 0.00 0.00 37 996.7
20260504204100 25 131 6.4 16.1 0.00 0.00 0.00 37 996.9
20260504203327 25 193 6.4 16.1 0.00 0.00 0.00 38 996.9
20260504202827 25 0 4.8 17.7 0.00 0.00 0.00 38 997.0
20260504202556 25 181 4.8 19.3 0.00 0.00 0.00 37 997.0
20260504201831 25 28 4.8 19.3 0.00 0.00 0.00 37 997.1